Weather History for Al Kharj Air Base, Saudi Arabia

Change the Weather History Date:

Wednesday, February 13, 2013

  Actual Average Record
Temperature  
Mean Temperature 63 °F -  
Max Temperature 69 °F - - ()
Min Temperature 57 °F - - ()
Degree Days  
Heating Degree Days 2    
Growing Degree Days 13 (Base 50)    
Moisture  
Dew Point 38 °F    
Average Humidity 40    
Maximum Humidity 59    
Minimum Humidity 28    
Precipitation  
Precipitation 0.00 in - - ()
Sea Level Pressure  
Sea Level Pressure 30.10 in    
Wind  
Wind Speed 11 mph ()    
Max Wind Speed 23 mph    
Max Gust Speed -    
Visibility 3.2 miles    
Events      
T = Trace of Precipitation, MM = Missing Value Source: Averaged Metar Reports

Daily Weather History Graph

Daily Weather History Graph

Search for Another Location

Airport:

Trip Planner

Search our weather history database for the weather conditions in past years. The results will help you decide how hot, cold, wet, or windy it might be!

Date:

Astronomy

Feb. 13, 2013 Rise Set
Actual Time 6:24 AM AST 5:43 PM AST
Civil Twilight 6:01 AM AST 6:06 PM AST
Nautical Twilight 5:34 AM AST 6:33 PM AST
Astronomical Twilight 5:07 AM AST 7:00 PM AST
Moon 8:09 AM AST (2/13) 8:51 PM AST (2/13)
Length of Visible Light 12h 05m
Length of Day
11h 19m
Waxing Crescent, 11% of the Moon is Illuminated
Feb 13
Waxing Crescent
Feb 17
First Quarter
Feb 25
Full
Mar 5
Last Quarter
Mar 11
New

Hourly Weather History & Observations

Time (AST) Temp. Dew Point Humidity Pressure Visibility Wind Dir Wind Speed Gust Speed Precip Events Conditions
12:00 AM 64.4 °F 39.2 °F 40% 30.04 in - NNE 8.1 mph - N/A   Clear
1:00 AM 62.6 °F 39.2 °F 42% 30.04 in - NNE 8.1 mph - N/A   Clear
2:00 AM 62.6 °F 39.2 °F 42% 30.04 in - NNE 8.1 mph - N/A   Clear
3:00 AM 62.6 °F 39.2 °F 42% 30.04 in - NNE 8.1 mph - N/A   Clear
4:00 AM 59.0 °F 39.2 °F 48% 30.04 in - NNE 9.2 mph - N/A   Clear
5:00 AM 59.0 °F 39.2 °F 48% 30.06 in - NNE 12.7 mph - N/A   Clear
6:00 AM 57.2 °F 42.8 °F 59% 30.09 in - NNE 13.8 mph - N/A   Clear
7:00 AM 57.2 °F 42.8 °F 59% 30.09 in 3.1 mi North 15.0 mph - N/A   Clear
9:00 AM 60.8 °F 42.8 °F 52% 30.15 in 3.1 mi NNE 23.0 mph - N/A   Widespread Dust
10:00 AM 60.8 °F 39.2 °F 45% 30.18 in 2.5 mi NNE 20.7 mph - N/A   Widespread Dust
11:00 AM 62.6 °F 37.4 °F 39% 30.15 in 3.1 mi NNE 19.6 mph - N/A   Widespread Dust
12:00 PM 66.2 °F 39.2 °F 37% 30.12 in 3.1 mi NNE 19.6 mph - N/A   Widespread Dust
2:00 PM 69.8 °F 35.6 °F 28% 30.09 in 3.7 mi NNE 16.1 mph - N/A   Clear
3:00 PM 69.8 °F 35.6 °F 28% 30.09 in 3.7 mi NNE 18.4 mph - N/A   Clear
5:00 PM 69.8 °F 35.6 °F 28% 30.09 in 2.5 mi NNE 18.4 mph - N/A   Widespread Dust
6:00 PM 68.0 °F 33.8 °F 28% 30.12 in 2.5 mi NNE 18.4 mph - N/A   Widespread Dust
7:00 PM 68.0 °F 33.8 °F 28% 30.12 in 3.1 mi NNE 15.0 mph - N/A   Clear
8:00 PM 66.2 °F 33.8 °F 30% 30.15 in 3.7 mi NNE 11.5 mph - N/A   Clear
9:00 PM 62.6 °F 32.0 °F 32% 30.15 in 3.7 mi NE 10.4 mph - N/A   Clear